Location: ??
(34.9170°N, 135.5016°E)
Time: 18:54:43
(UTC+00:00)

Cosmos 1602 Rocket - Pass Details

Date: 29 October 2020
Orbit: 603 x 633 km, 82.5° (Epoch: 01 December)

Event Time Altitude Azimuth Distance (km) Brightness Sun altitude
Rises 20:47:29 0° 197° (SSW) 2,885 6.9 -6.7°
Reaches altitude 10° 20:49:44 10° 202° (SSW) 1,987 6.1 -6.2°
Maximum altitude 20:54:02 52° 279° (W) 781 3.7 -5.4°
Drops below altitude 10° 20:58:24 10° 356° (N) 2,016 6.0 -4.5°
Sets 21:00:43 0° 1° (N) 2,930 6.9 -4.1°
